Date String (YYYY-MM-DD hh:mm:ss) UTC,Instrument flags,absolute air pressure of the measurement (hPa),sample flow rate (lpm),inlet stack bypass flow (lpm),air temperature of the measurement (°C),ambient temperature measured by the external sensor (°C),aerosol sample conditioner tube jacket temperature (°C),OPC LED temperature (°C),internal box temperature (°C),relative humidity of the measurement (%),span deviation,mass concentration of particles derived from Lorenz-Mie calculation of OPC scattering (μg/m³),mass concentration of particles derived from Lorenz-Mie calculation of OPC scattering (μg/m³),mass concentration of particles derived from Lorenz-Mie calculation of OPC scattering (μg/m³)
DateTimeUTC,F1_M11,P_M11,Q1_M11,Q2_M11,T1_M11,T2_M11,T3_M11,T4_M11,T5_M11,U1_M11,ZSPAN_M11,X2_M11,X0_M11,X1_M11
2024-02-29 10:00:00,SystemResetWarning,0826.1,5.01,000.00,019.8,019.0,000.0,028.3,021.5,09.8,0000.0,0004.51,0018.94,0002.91
2024-02-29 10:01:00,SystemResetWarning,0825.9,5.00,000.00,019.8,019.0,000.0,028.3,021.5,09.8,0000.0,0004.55,0019.66,0002.89
2024-02-29 10:02:00,SystemResetWarning,0825.9,4.99,000.00,019.8,019.0,000.0,028.3,021.5,09.7,0000.0,0004.54,0020.04,0002.86
2024-02-29 10:03:00,SystemResetWarning,0825.9,5.00,000.00,019.8,019.0,000.0,028.3,021.5,09.7,0000.0,0004.59,0018.99,0002.85
2024-02-29 10:04:00,SystemResetWarning,0825.9,5.01,000.00,019.8,019.0,000.0,028.3,021.5,09.7,0000.0,0004.58,0019.63,0002.84
2024-02-29 10:05:00,SystemResetWarning,0825.9,5.00,000.00,019.8,019.0,000.0,028.3,021.6,09.7,0000.0,0004.62,0019.31,0002.85
2024-02-29 10:06:00,SystemResetWarning,0826.0,5.00,000.00,019.8,019.0,000.0,028.3,021.6,09.7,0000.0,0004.67,0018.85,0002.84
2024-02-29 10:07:00,SystemResetWarning,0826.0,5.00,000.00,019.8,019.0,000.0,028.3,021.5,09.7,0000.0,0004.60,0018.73,0002.85
2024-02-29 10:08:00,SystemResetWarning,0825.9,5.00,000.00,019.8,019.0,000.0,028.2,021.5,09.7,0000.0,0004.58,0018.92,0002.84
2024-02-29 10:09:00,SystemResetWarning,0825.9,5.00,000.00,019.8,019.0,000.0,028.2,021.5,09.7,0000.0,0004.60,0018.25,0002.84
2024-02-29 10:10:00,SystemResetWarning,0826.0,5.00,000.00,019.8,018.9,000.0,028.2,021.5,09.7,0000.0,0004.59,0016.71,0002.86
2024-02-29 10:11:00,SystemResetWarning,0826.0,5.00,000.00,019.7,018.9,000.0,028.2,021.4,09.8,0000.0,0004.62,0016.46,0002.89
2024-02-29 10:12:00,SystemResetWarning,0825.9,5.00,000.00,019.7,018.8,000.0,028.2,021.4,09.9,0000.0,0004.61,0016.93,0002.92
2024-02-29 10:13:00,SystemResetWarning,0825.9,4.99,000.00,019.7,018.8,000.0,028.2,021.3,09.9,0000.0,0004.69,0016.84,0002.95
2024-02-29 10:14:00,SystemResetWarning,0825.9,5.00,000.00,019.6,018.8,000.0,028.2,021.3,09.9,0000.0,0004.69,0017.15,0002.98
2024-02-29 10:15:00,SystemResetWarning,0825.9,5.00,000.00,019.6,018.8,000.0,028.2,021.3,09.9,0000.0,0004.74,0017.13,0002.99
2024-02-29 10:16:00,SystemResetWarning,0825.9,5.01,000.00,019.6,018.8,000.0,028.2,021.3,09.9,0000.0,0004.81,0017.21,0003.02
2024-02-29 10:17:00,SystemResetWarning,0826.0,5.00,000.00,019.6,018.7,000.0,028.2,021.3,10.0,0000.0,0004.76,0017.52,0003.05
2024-02-29 10:18:00,SystemResetWarning,0825.9,5.00,000.00,019.5,018.7,000.0,028.2,021.3,10.0,0000.0,0004.75,0017.56,0003.05
2024-02-29 10:19:00,SystemResetWarning,0825.9,5.00,000.00,019.5,018.7,000.0,028.2,021.3,10.0,0000.0,0004.74,0018.13,0003.08
2024-02-29 10:20:00,SystemResetWarning,0825.9,5.00,000.00,019.5,018.7,000.0,028.2,021.3,10.0,0000.0,0004.73,0017.36,0003.09
2024-02-29 10:21:00,SystemResetWarning,0825.9,5.00,000.00,019.5,018.7,000.0,028.1,021.3,10.1,0000.0,0004.81,0018.09,0003.11
2024-02-29 10:22:00,SystemResetWarning,0825.9,4.99,000.00,019.5,018.8,000.0,028.1,021.3,10.1,0000.0,0004.80,0018.99,0003.11
2024-02-29 10:23:00,SystemResetWarning,0825.9,4.99,000.00,019.5,018.8,000.0,028.1,021.3,10.1,0000.0,0004.82,0018.82,0003.12
2024-02-29 10:24:00,SystemResetWarning,0825.9,5.00,000.00,019.5,018.8,000.0,028.1,021.3,10.2,0000.0,0004.82,0017.73,0003.13
2024-02-29 10:25:00,SystemResetWarning,0825.9,5.00,000.00,019.5,018.8,000.0,028.1,021.3,10.2,0000.0,0004.78,0016.94,0003.13
2024-02-29 10:26:00,SystemResetWarning,0825.9,5.00,000.00,019.6,018.8,000.0,028.1,021.3,10.2,0000.0,0004.72,0016.15,0003.13
2024-02-29 10:27:00,SystemResetWarning,0825.9,5.00,000.00,019.6,018.8,000.0,028.1,021.3,10.3,0000.0,0004.67,0015.11,0003.13
2024-02-29 10:28:00,SystemResetWarning,0825.9,5.00,000.00,019.6,018.8,000.0,028.0,021.3,10.2,0000.0,0004.73,0015.06,0003.14
2024-02-29 10:29:00,SystemResetWarning,0825.9,5.00,000.00,019.6,018.8,000.0,028.0,021.3,10.2,0000.0,0004.76,0014.58,0003.15
2024-02-29 10:30:00,SystemResetWarning,0825.9,5.00,000.00,019.6,018.8,000.0,028.0,021.3,10.2,0000.0,0004.83,0015.17,0003.17
2024-02-29 10:31:00,SystemResetWarning,0825.9,5.00,000.00,019.6,018.8,000.0,028.0,021.3,10.2,0000.0,0004.85,0016.06,0003.19
2024-02-29 10:32:00,SystemResetWarning,0825.9,5.00,000.00,019.6,018.8,000.0,028.0,021.3,10.2,0000.0,0004.82,0015.21,0003.20
2024-02-29 10:33:00,SystemResetWarning,0825.8,5.00,000.00,019.6,018.8,000.0,028.0,021.3,10.1,0000.0,0004.88,0014.36,0003.24
2024-02-29 10:34:00,SystemResetWarning,0825.9,4.99,000.00,019.6,018.8,000.0,028.0,021.3,10.0,0000.0,0004.90,0014.01,0003.25
2024-02-29 10:35:00,SystemResetWarning,0825.8,4.99,000.00,019.6,018.8,000.0,028.0,021.3,09.7,0000.0,0004.84,0013.92,0003.26
2024-02-29 10:36:00,SystemResetWarning,0825.8,5.00,000.00,019.6,018.8,000.0,028.0,021.3,09.9,0000.0,0004.85,0014.20,0003.26
2024-02-29 10:37:00,SystemResetWarning,0825.8,5.01,000.00,019.6,018.8,000.0,028.0,021.3,09.7,0000.0,0004.87,0014.44,0003.26
2024-02-29 10:38:00,SystemResetWarning,0825.7,5.00,000.00,019.6,018.8,000.0,028.0,021.3,09.4,0000.0,0004.83,0014.64,0003.26
2024-02-29 10:39:00,SystemResetWarning,0825.9,5.00,000.00,019.6,018.8,000.0,028.0,021.3,09.3,0000.0,0004.78,0014.26,0003.26
2024-02-29 10:40:00,SystemResetWarning,0825.9,4.99,000.00,019.6,018.8,000.0,028.0,021.3,09.3,0000.0,0004.74,0013.89,0003.26
2024-02-29 10:41:00,SystemResetWarning,0825.9,5.00,000.00,019.6,018.8,000.0,028.0,021.3,09.6,0000.0,0004.69,0013.38,0003.25
2024-02-29 10:42:00,SystemResetWarning,0825.9,5.01,000.00,019.5,018.7,000.0,028.0,021.2,09.8,0000.0,0004.66,0012.78,0003.23
2024-02-29 10:43:00,SystemResetWarning,0825.8,5.00,000.00,019.5,018.7,000.0,028.0,021.2,10.1,0000.0,0004.60,0012.86,0003.21
2024-02-29 10:44:00,SystemResetWarning,0825.8,5.00,000.00,019.5,018.7,000.0,028.0,021.2,10.1,0000.0,0004.53,0012.87,0003.18
2024-02-29 10:45:00,SystemResetWarning,0825.8,5.00,000.00,019.5,018.7,000.0,028.0,021.2,10.1,0000.0,0004.49,0012.73,0003.18
2024-02-29 10:46:00,SystemResetWarning,0825.8,4.99,000.00,019.5,018.7,000.0,027.9,021.2,10.1,0000.0,0004.51,0013.12,0003.17
2024-02-29 10:47:00,SystemResetWarning,0825.8,4.99,000.00,019.5,018.7,000.0,027.9,021.2,10.1,0000.0,0004.51,0012.73,0003.17
2024-02-29 10:48:00,SystemResetWarning,0825.8,5.00,000.00,019.5,018.7,000.0,027.9,021.2,10.1,0000.0,0004.54,0012.52,0003.18
2024-02-29 10:49:00,SystemResetWarning,0825.8,5.02,000.00,019.4,018.7,000.0,027.9,021.2,10.1,0000.0,0004.55,0012.24,0003.19
2024-02-29 10:50:00,SystemResetWarning,0825.9,4.99,000.00,019.5,018.7,000.0,027.9,021.2,10.1,0000.0,0004.59,0012.40,0003.18
2024-02-29 10:51:00,SystemResetWarning,0825.9,4.98,000.00,019.5,018.7,000.0,027.9,021.2,10.0,0000.0,0004.59,0013.34,0003.16
2024-02-29 10:52:00,SystemResetWarning,0825.9,5.01,000.00,019.5,018.7,000.0,027.9,021.2,10.0,0000.0,0004.57,0012.51,0003.15
2024-02-29 10:53:00,SystemResetWarning,0825.9,5.01,000.00,019.4,018.7,000.0,027.9,021.2,10.1,0000.0,0004.55,0012.39,0003.14
2024-02-29 10:54:00,SystemResetWarning,0825.9,5.00,000.00,019.4,018.6,000.0,027.9,021.1,10.2,0000.0,0004.58,0012.91,0003.15
2024-02-29 10:55:00,SystemResetWarning,0825.9,4.99,000.00,019.4,018.6,000.0,027.9,021.1,10.1,0000.0,0004.58,0013.53,0003.16
2024-02-29 10:56:00,SystemResetWarning,0825.9,4.99,000.00,019.4,018.5,000.0,027.9,021.1,10.1,0000.0,0004.58,0013.50,0003.15
2024-02-29 10:57:00,SystemResetWarning,0825.9,5.01,000.00,019.3,018.5,000.0,027.9,021.0,10.1,0000.0,0004.52,0013.21,0003.15
2024-02-29 10:58:00,SystemResetWarning,0825.8,5.01,000.00,019.3,018.5,000.0,027.8,021.0,10.1,0000.0,0004.46,0013.01,0003.15
2024-02-29 10:59:00,SystemResetWarning,0825.8,5.00,000.00,019.3,018.5,000.0,027.8,021.0,10.1,0000.0,0004.47,0013.28,0003.15
